Tillbaka till svenska Fidonet
English   Information   Debug  
FILM   0/18
FNEWS_PUBLISH   4851
FN_SYSOP   42078
FN_SYSOP_OLD1   71952
FTP_FIDO   0/2
FTSC_PUBLIC   0/13916
FUNNY   0/4886
GENEALOGY.EUR   0/71
GET_INFO   105
GOLDED   0/408
HAM   2208/16597
HOLYSMOKE   0/6791
HOT_SITES   0/1
HTMLEDIT   0/71
HUB203   466
HUB_100   264
HUB_400   39
HUMOR   0/29
IC   1098/2851
INTERNET   0/424
INTERUSER   0/3
IP_CONNECT   719
JAMNNTPD   0/233
JAMTLAND   0/47
KATTY_KORNER   0/41
LAN   0/16
LINUX-USER   0/19
LINUXHELP   0/1155
LINUX   0/22279
LINUX_BBS   0/957
mail   18.68
mail_fore_ok   249
MENSA   0/341
MODERATOR   0/102
MONTE   0/992
MOSCOW_OKLAHOMA   0/1245
MUFFIN   0/783
MUSIC   0/321
N203_STAT   938
N203_SYSCHAT   313
NET203   321
NET204   69
NET_DEV   0/10
NORD.ADMIN   0/101
NORD.CHAT   0/2572
NORD.FIDONET   189
NORD.HARDWARE   0/28
NORD.KULTUR   0/114
NORD.PROG   0/32
NORD.SOFTWARE   0/88
NORD.TEKNIK   0/58
NORD   0/453
OCCULT_CHAT   0/93
OS2BBS   0/787
OS2DOSBBS   0/580
OS2HW   0/42
OS2INET   0/37
OS2LAN   0/134
OS2PROG   0/36
OS2REXX   0/113
OS2USER-L   207
OS2   0/4823
OSDEBATE   0/18996
PASCAL   0/490
PERL   0/457
PHP   0/45
POINTS   0/405
POLITICS   0/29554
POL_INC   0/14731
PSION   103
R20_ADMIN   1133
R20_AMATORRADIO   0/2
R20_BEST_OF_FIDONET   16
R20_CHAT   0/896
R20_DEPP   0/3
R20_DEV   400
R20_ECHO2   1763
R20_ECHOPRES   0/35
R20_ESTAT   0/719
R20_FIDONETPROG...
...RAM.MYPOINT
  0/2
R20_FIDONETPROGRAM   0/22
R20_FIDONET   0/248
R20_FILEFIND   0/24
R20_FILEFOUND   0/22
R20_HIFI   0/3
R20_INFO2   3656
R20_INTERNET   0/12940
R20_INTRESSE   0/60
R20_INTR_KOM   0/99
R20_KANDIDAT.CHAT   42
R20_KANDIDAT   28
R20_KOM_DEV   112
R20_KONTROLL   0/13360
R20_KORSET   0/18
R20_LOKALTRAFIK   0/24
R20_MODERATOR   0/1852
R20_NC   76
R20_NET200   245
R20_NETWORK.OTH...
...ERNETS
  0/13
R20_OPERATIVSYS...
...TEM.LINUX
  0/44
R20_PROGRAMVAROR   0/1
R20_REC2NEC   534
R20_SFOSM   0/341
R20_SF   0/108
R20_SPRAK.ENGLISH   0/1
R20_SQUISH   107
R20_TEST   2
R20_WORST_OF_FIDONET   20
RAR   0/9
RA_MULTI   106
RA_UTIL   0/162
REGCON.EUR   0/2067
REGCON   0/13
SCIENCE   0/1206
SF   0/239
SHAREWARE_SUPPORT   0/5146
SHAREWRE   0/14
SIMPSONS   0/169
STATS_OLD1   0/2539.065
STATS_OLD2   0/2530
STATS_OLD3   0/2395.095
STATS_OLD4   0/1692.25
SURVIVOR   0/495
SYSOPS_CORNER   0/3
SYSOP   0/84
TAGLINES   0/112
TEAMOS2   0/4530
TECH   0/2617
TEST.444   0/105
TRAPDOOR   0/19
TREK   0/755
TUB   0/290
UFO   0/40
UNIX   0/1316
USA_EURLINK   0/102
USR_MODEMS   0/1
VATICAN   0/2740
VIETNAM_VETS   0/14
VIRUS   0/378
VIRUS_INFO   0/201
VISUAL_BASIC   0/473
WHITEHOUSE   0/5187
WIN2000   0/101
WIN32   0/30
WIN95   0/4291
WIN95_OLD1   0/70272
WINDOWS   0/1517
WWB_SYSOP   0/419
WWB_TECH   0/810
ZCC-PUBLIC   0/1
ZEC   4

 
4DOS   0/134
ABORTION   0/7
ALASKA_CHAT   0/506
ALLFIX_FILE   0/1313
ALLFIX_FILE_OLD1   0/7997
ALT_DOS   0/152
AMATEUR_RADIO   0/1039
AMIGASALE   0/14
AMIGA   0/331
AMIGA_INT   0/1
AMIGA_PROG   0/20
AMIGA_SYSOP   0/26
ANIME   0/15
ARGUS   0/924
ASCII_ART   0/340
ASIAN_LINK   0/651
ASTRONOMY   0/417
AUDIO   0/92
AUTOMOBILE_RACING   0/105
BABYLON5   0/17862
BAG   135
BATPOWER   0/361
BBBS.ENGLISH   0/382
BBSLAW   0/109
BBS_ADS   0/5290
BBS_INTERNET   0/507
BIBLE   0/3563
BINKD   0/1119
BINKLEY   0/215
BLUEWAVE   0/2173
CABLE_MODEMS   0/25
CBM   0/46
CDRECORD   0/66
CDROM   0/20
CLASSIC_COMPUTER   0/378
COMICS   0/15
CONSPRCY   0/899
COOKING   40764
COOKING_OLD1   0/24719
COOKING_OLD2   0/40862
COOKING_OLD3   26881/37489
COOKING_OLD4   0/35496
COOKING_OLD5   9370
C_ECHO   0/189
C_PLUSPLUS   0/31
DIRTY_DOZEN   0/201
DOORGAMES   0/2234
DOS_INTERNET   0/196
duplikat   6102
ECHOLIST   0/18295
EC_SUPPORT   0/318
ELECTRONICS   0/359
ELEKTRONIK.GER   1534
ENET.LINGUISTIC   0/13
ENET.POLITICS   0/4
ENET.SOFT   0/11701
ENET.SYSOP   34241
ENET.TALKS   0/32
ENGLISH_TUTOR   0/2000
EVOLUTION   0/1335
FDECHO   0/217
FDN_ANNOUNCE   0/7068
FIDONEWS   24878
FIDONEWS_OLD1   0/49742
FIDONEWS_OLD2   0/35949
FIDONEWS_OLD3   0/30874
FIDONEWS_OLD4   0/37224
FIDO_SYSOP   12919
FIDO_UTIL   0/180
FILEFIND   0/209
FILEGATE   0/212
Möte HAM, 16597 texter
 lista första sista föregående nästa
Text 2223, 787 rader
Skriven 2008-04-03 22:00:20 av Amsat List (1:323/120.0)
Ärende: [keps]  orb08094.amsa
=============================
[keps]  orb08094.amsa

Return-Path: <keps-bounces@amsat.org>
X-Rcpt: craig.healy@chowda.com
X-UIDL: 1207277133.1009

SB KEPS @ AMSAT  $ORB08094.O
Orbital Elements  08094.OSCAR

HR AMSAT ORBITAL ELEMENTS FOR OSCAR SATELLITES
FROM WA5QGD FORT WORTH,TX April 3, 2008
Send Subscribe/unsubscribe to KEPS at 
http://www.amsat.org/mailman/listinfo/keps
BID: ORB08094.O
TO ALL RADIO AMATEURS BT

Satellite: AO-07
Catalog number: 07530
Epoch time:      08093.63709809
Element set:     142
Inclination:      101.4752 deg
RA of node:       127.6405 deg
Eccentricity:    0.0012073
Arg of perigee:   050.4817 deg
Mean anomaly:     309.7317 deg
Mean motion:   12.53573705 rev/day
Decay rate:       -2.7e-07 rev/day^2
Epoch rev:           52751
Checksum:              283

Satellite: AO-10
Catalog number: 14129
Epoch time:      08093.48616335
Element set:    0490
Inclination:      025.9254 deg
RA of node:       222.3870 deg
Eccentricity:    0.6011501
Arg of perigee:   112.0428 deg
Mean anomaly:     319.9334 deg
Mean motion:   02.05870866 rev/day
Decay rate:        1.4e-07 rev/day^2
Epoch rev:           18654
Checksum:              284

Satellite: UO-11
Catalog number: 14781
Epoch time:      08093.91910843
Element set:    0636
Inclination:      098.1627 deg
RA of node:       126.7996 deg
Eccentricity:    0.0008383
Arg of perigee:   321.8118 deg
Mean anomaly:     038.2504 deg
Mean motion:   14.79629403 rev/day
Decay rate:        4.0e-08 rev/day^2
Epoch rev:           29272
Checksum:              317

Satellite: RS-15
Catalog number: 23439
Epoch time:      08093.89184904
Element set:    0133
Inclination:      064.8142 deg
RA of node:       256.8059 deg
Eccentricity:    0.0149696
Arg of perigee:   137.1166 deg
Mean anomaly:     224.1545 deg
Mean motion:   11.27552040 rev/day
Decay rate:       -3.9e-07 rev/day^2
Epoch rev:           54647
Checksum:              317

Satellite: FO-29
Catalog number: 24278
Epoch time:      08094.87412977
Element set:     741
Inclination:      098.5872 deg
RA of node:       020.8816 deg
Eccentricity:    0.0351313
Arg of perigee:   047.9895 deg
Mean anomaly:     315.0596 deg
Mean motion:   13.52936941 rev/day
Decay rate:       -4.4e-07 rev/day^2
Epoch rev:           57434
Checksum:              349

Satellite: SO-33
Catalog number: 25509
Epoch time:      08093.91017508
Element set:    0167
Inclination:      031.4297 deg
RA of node:       021.9830 deg
Eccentricity:    0.0354719
Arg of perigee:   089.1146 deg
Mean anomaly:     275.0094 deg
Mean motion:   14.28208518 rev/day
Decay rate:       2.15e-06 rev/day^2
Epoch rev:           49284
Checksum:              310

Satellite: AO-40
Catalog number: 26609
Epoch time:      08093.96854615
Element set:      34
Inclination:      007.5091 deg
RA of node:       089.7898 deg
Eccentricity:    0.7918353
Arg of perigee:   067.5341 deg
Mean anomaly:     354.4005 deg
Mean motion:   01.25584547 rev/day
Decay rate:      -2.24e-06 rev/day^2
Epoch rev:            3409
Checksum:              328

Satellite: VO-52
Catalog number: 28650
Epoch time:      08093.89400828
Element set:    0896
Inclination:      097.7946 deg
RA of node:       162.5512 deg
Eccentricity:    0.0027738
Arg of perigee:   028.6512 deg
Mean anomaly:     331.6229 deg
Mean motion:   14.81444059 rev/day
Decay rate:       4.74e-06 rev/day^2
Epoch rev:           15745
Checksum:              338

Satellite: PO-63
Catalog number: 29712
Epoch time:      08094.72621231
Element set:     324
Inclination:      097.8812 deg
RA of node:       154.2925 deg
Eccentricity:    0.0013019
Arg of perigee:   263.6470 deg
Mean anomaly:     096.3252 deg
Mean motion:   14.80088607 rev/day
Decay rate:      1.025e-05 rev/day^2
Epoch rev:            6645
Checksum:              296

/EX
SB KEPS @ AMSAT  $ORB08094.D
Orbital Elements  08094.MICROS

HR AMSAT ORBITAL ELEMENTS FOR THE MICROSATS
FROM WA5QGD FORT WORTH,TX April 3, 2008
Send Subscribe/unsubscribe to KEPS at 
http://www.amsat.org/mailman/listinfo/keps
BID: ORB08094.D
TO ALL RADIO AMATEURS BT

Satellite: AO-16
Catalog number: 20439
Epoch time:      08093.94675842
Element set:    0289
Inclination:      098.2245 deg
RA of node:       077.8767 deg
Eccentricity:    0.0011840
Arg of perigee:   043.4416 deg
Mean anomaly:     316.7704 deg
Mean motion:   14.31788890 rev/day
Decay rate:        2.7e-07 rev/day^2
Epoch rev:           95015
Checksum:              334

Satellite: LO-19
Catalog number: 20442
Epoch time:      08094.70527209
Element set:     214
Inclination:      098.1967 deg
RA of node:       087.3509 deg
Eccentricity:    0.0012726
Arg of perigee:   039.9570 deg
Mean anomaly:     320.2572 deg
Mean motion:   14.32027827 rev/day
Decay rate:        1.4e-07 rev/day^2
Epoch rev:           95041
Checksum:              297

Satellite: AO-27
Catalog number: 22825
Epoch time:      08093.94265919
Element set:    0937
Inclination:      098.3752 deg
RA of node:       056.8156 deg
Eccentricity:    0.0009067
Arg of perigee:   119.3529 deg
Mean anomaly:     240.8593 deg
Mean motion:   14.29234759 rev/day
Decay rate:       -2.3e-07 rev/day^2
Epoch rev:           75702
Checksum:              344

Satellite: IO-26
Catalog number: 22826
Epoch time:      08093.86977973
Element set:    0640
Inclination:      098.3696 deg
RA of node:       057.6907 deg
Eccentricity:    0.0009720
Arg of perigee:   116.7695 deg
Mean anomaly:     243.4492 deg
Mean motion:   14.29483146 rev/day
Decay rate:        4.1e-07 rev/day^2
Epoch rev:           75710
Checksum:              348

